Precipitable_Water
1.39 1.34 1.32 1.28 1.24 1.23 1.22 1.20 1.12 1.11 1.13 1.17 1.19 1.24 1.29 1.27 1.30 1.32 1.34 1.29 1.34 1.38 1.41 1.41 1.41 1.40 1.42 1.41 1.35 1.39 1.42 1.47 1.51 1.54 1.49 1.49 1.58 1.69 1.82 1.66 1.52 1.52 1.57 1.68 1.74 1.72 1.59 1.56 1.56 1.57 1.56 1.53 1.50 1.52 1.59 1.56 1.47 1.39 1.34 1.28 1.20 1.23 1.16 1.15 1.04 1.06 1.25 1.38 1.32 1.30 1.31 1.33 1.36 1.41 1.26 1.31 1.31 1.38 1.29 1.31 1.30 1.35 1.37 1.31 1.45
1.44 1.46 1.39 1.36 1.29 1.26 1.26 1.23 1.19 1.14 1.08 1.11 1.11 1.16 1.22 1.25 1.25 1.25 1.27 1.32 1.27 1.30 1.35 1.37 1.34 1.34 1.35 1.38 1.40 1.41 1.42 1.44 1.46 1.45 1.45 1.42 1.41 1.47 1.48 1.60 1.57 1.52 1.55 1.49 1.50 1.63 1.64 1.51 1.52 1.55 1.56 1.47 1.48 1.46 1.50 1.53 1.48 1.39 1.36 1.28 1.26 1.25 1.28 1.16 1.12 1.03 1.01 1.24 1.27 1.44 1.40 1.36 1.33 1.45 1.31 1.20 1.26 1.25 1.24 1.26 1.36 1.37 1.32 1.25 1.27
1.55 1.55 1.49 1.41 1.34 1.32 1.30 1.31 1.26 1.18 1.08 1.06 1.06 1.09 1.16 1.22 1.23 1.18 1.18 1.25 1.31 1.25 1.27 1.29 1.32 1.29 1.28 1.33 1.37 1.37 1.42 1.44 1.44 1.45 1.44 1.42 1.38 1.41 1.45 1.45 1.43 1.42 1.43 1.43 1.49 1.53 1.54 1.53 1.49 1.50 1.55 1.48 1.44 1.44 1.50 1.49 1.51 1.49 1.47 1.46 1.39 1.33 1.32 1.35 1.23 1.08 1.06 1.11 1.25 1.25 1.35 1.42 1.37 1.32 1.28 1.28 1.28 1.28 1.26 1.32 1.33 1.32 1.29 1.30 1.20
1.67 1.64 1.56 1.49 1.43 1.36 1.31 1.32 1.33 1.26 1.14 1.06 1.03 1.05 1.12 1.18 1.25 1.16 1.13 1.13 1.22 1.26 1.22 1.23 1.26 1.26 1.24 1.22 1.28 1.33 1.35 1.39 1.40 1.40 1.41 1.42 1.42 1.40 1.46 1.51 1.52 1.45 1.41 1.42 1.41 1.44 1.47 1.49 1.49 1.51 1.52 1.46 1.47 1.44 1.42 1.44 1.46 1.46 1.43 1.44 1.40 1.35 1.34 1.32 1.33 1.22 1.11 0.99 1.12 1.10 1.22 1.20 1.26 1.30 1.33 1.33 1.27 1.27 1.24 1.22 1.26 1.27 1.35 1.30 1.20
1.85 1.74 1.66 1.56 1.52 1.44 1.38 1.34 1.31 1.31 1.23 1.16 1.06 1.05 1.07 1.12 1.19 1.19 1.13 1.07 1.10 1.22 1.24 1.20 1.19 1.20 1.18 1.16 1.16 1.24 1.28 1.31 1.32 1.33 1.36 1.38 1.39 1.40 1.41 1.40 1.40 1.42 1.44 1.44 1.45 1.47 1.47 1.45 1.49 1.50 1.47 1.40 1.40 1.43 1.42 1.38 1.41 1.39 1.35 1.35 1.34 1.35 1.34 1.30 1.28 1.26 1.17 1.05 1.11 1.21 1.23 1.24 1.26 1.27 1.32 1.24 1.27 1.22 1.20 1.18 1.15 1.17 1.25 1.30 1.28
1.84 1.82 1.76 1.64 1.58 1.52 1.45 1.39 1.34 1.32 1.28 1.23 1.19 1.11 1.08 1.06 1.09 1.18 1.16 1.10 1.05 1.08 1.19 1.20 1.15 1.14 1.15 1.14 1.13 1.17 1.24 1.27 1.29 1.28 1.29 1.35 1.33 1.30 1.27 1.25 1.25 1.26 1.26 1.29 1.34 1.40 1.42 1.43 1.44 1.45 1.42 1.36 1.36 1.37 1.36 1.34 1.37 1.36 1.32 1.33 1.34 1.34 1.32 1.31 1.27 1.21 1.16 1.12 1.10 1.07 1.14 1.13 1.23 1.30 1.37 1.33 1.21 1.16 1.12 1.10 1.11 1.17 1.26 1.36 1.38
1.91 1.79 1.79 1.76 1.65 1.58 1.54 1.49 1.42 1.37 1.36 1.30 1.24 1.20 1.13 1.08 1.05 1.09 1.17 1.15 1.10 1.00 1.06 1.16 1.17 1.13 1.14 1.14 1.12 1.12 1.14 1.17 1.21 1.25 1.27 1.27 1.26 1.25 1.21 1.19 1.19 1.21 1.24 1.24 1.26 1.27 1.29 1.31 1.34 1.37 1.36 1.35 1.34 1.33 1.34 1.34 1.33 1.32 1.34 1.36 1.36 1.29 1.24 1.23 1.23 1.18 1.16 1.12 1.14 1.17 1.16 1.23 1.24 1.18 1.40 1.49 1.39 1.28 1.16 1.13 1.13 1.27 1.27 1.27 1.28
1.90 1.87 1.79 1.77 1.73 1.66 1.62 1.61 1.54 1.48 1.44 1.41 1.33 1.24 1.20 1.18 1.10 1.07 1.10 1.11 1.09 1.06 1.01 1.06 1.18 1.18 1.14 1.14 1.12 1.14 1.14 1.14 1.13 1.16 1.20 1.20 1.18 1.17 1.16 1.15 1.13 1.17 1.15 1.16 1.20 1.22 1.24 1.25 1.27 1.33 1.33 1.34 1.32 1.31 1.31 1.28 1.32 1.29 1.32 1.31 1.31 1.28 1.22 1.20 1.19 1.19 1.20 1.19 1.17 1.17 1.22 1.22 1.27 1.33 1.33 1.24 1.20 1.27 1.38 1.34 1.21 1.18 1.19 1.22 1.22
1.93 1.88 1.82 1.76 1.76 1.75 1.73 1.69 1.66 1.61 1.53 1.49 1.42 1.32 1.23 1.22 1.19 1.11 1.07 1.08 1.11 1.11 1.06 1.01 1.05 1.16 1.19 1.15 1.12 1.10 1.11 1.12 1.12 1.10 1.11 1.12 1.09 1.06 1.09 1.09 1.07 1.07 1.11 1.12 1.16 1.15 1.12 1.15 1.19 1.22 1.27 1.32 1.32 1.31 1.31 1.35 1.34 1.28 1.31 1.33 1.31 1.29 1.26 1.21 1.18 1.15 1.14 1.11 1.09 1.13 1.11 1.11 1.14 1.16 1.17 1.19 1.18 1.21 1.37 1.34 1.18 1.18 1.21 1.21 1.31
2.00 1.89 1.84 1.83 1.81 1.79 1.76 1.73 1.71 1.69 1.62 1.54 1.50 1.43 1.33 1.25 1.23 1.21 1.17 1.11 1.07 1.06 1.06 1.04 1.01 1.06 1.11 1.12 1.11 1.06 1.02 1.07 1.08 1.05 1.05 1.06 1.03 0.97 1.00 1.01 1.03 1.02 1.01 1.00 1.01 1.07 1.09 1.07 1.06 1.07 1.10 1.15 1.19 1.22 1.21 1.19 1.22 1.25 1.30 1.36 1.37 1.32 1.27 1.23 1.20 1.16 1.11 1.07 1.07 1.10 1.08 1.09 1.15 1.23 1.25 1.30 1.35 1.34 1.24 1.25 1.26 1.34 1.31 1.23 1.18
1.99 1.97 1.91 1.92 1.91 1.85 1.81 1.77 1.74 1.71 1.70 1.65 1.60 1.54 1.47 1.39 1.31 1.27 1.26 1.25 1.18 1.11 1.04 0.98 0.94 0.97 1.05 1.09 1.07 1.01 0.96 0.95 1.00 0.99 0.96 0.96 0.99 0.98 0.90 0.93 0.97 0.98 0.99 1.00 0.98 0.96 0.96 0.99 0.99 1.01 1.04 1.04 1.06 1.08 1.09 1.06 1.04 1.02 1.06 1.09 1.21 1.30 1.27 1.27 1.28 1.27 1.20 1.13 1.14 1.12 1.08 1.06 1.11 1.16 1.13 1.12 1.17 1.15 1.13 1.15 1.18 1.22 1.18 1.12 1.02
2.05 2.01 1.94 2.02 1.98 1.94 1.87 1.84 1.80 1.73 1.71 1.69 1.67 1.63 1.59 1.52 1.44 1.37 1.34 1.31 1.31 1.28 1.20 1.07 0.97 0.92 0.95 1.01 1.05 1.03 0.97 0.91 0.90 0.92 0.90 0.87 0.87 0.91 0.93 0.88 0.88 0.93 0.97 0.95 0.95 0.94 0.91 0.89 0.91 0.94 0.96 0.99 1.02 1.07 1.02 1.01 0.99 0.99 0.97 0.95 0.96 1.03 1.16 1.19 1.19 1.20 1.22 1.18 1.14 1.11 1.06 1.03 1.08 1.12 1.10 1.08 1.08 1.08 1.10 1.09 1.05 1.03 1.02 0.96 0.98
2.10 2.06 2.07 2.06 2.04 1.98 1.95 1.91 1.87 1.83 1.79 1.73 1.71 1.68 1.64 1.59 1.52 1.45 1.40 1.42 1.43 1.40 1.33 1.27 1.17 1.06 0.94 0.90 0.93 1.00 1.03 1.01 0.93 0.88 0.85 0.81 0.79 0.77 0.78 0.85 0.89 0.90 0.94 1.00 0.98 0.95 0.93 0.91 0.88 0.88 0.88 0.92 0.97 1.01 1.13 1.09 1.05 1.03 0.99 0.96 0.95 0.97 1.00 1.06 1.12 1.12 1.15 1.15 1.10 1.10 1.11 1.11 1.05 1.04 1.06 1.00 1.00 0.88 0.87 0.84 0.82 0.83 0.88 0.91 0.97
2.07 2.10 2.14 2.11 2.10 2.08 2.00 1.95 1.93 1.94 1.94 1.88 1.82 1.74 1.66 1.59 1.54 1.50 1.47 1.46 1.45 1.44 1.42 1.37 1.32 1.25 1.17 1.06 0.97 0.93 0.95 1.03 1.03 0.97 0.90 0.85 0.80 0.77 0.73 0.72 0.77 0.82 0.90 0.96 1.01 1.05 1.04 0.98 0.93 0.90 0.89 0.85 0.89 0.96 1.01 1.11 1.14 1.06 1.03 0.99 0.94 0.92 0.95 0.99 1.01 1.04 1.06 1.03 0.99 0.92 0.99 1.07 0.98 1.00 1.06 1.09 0.97 0.86 0.82 0.76 0.83 0.85 0.87 0.88 1.01
2.06 2.08 2.10 2.18 2.13 2.08 2.05 2.00 1.97 1.97 1.96 1.96 1.93 1.84 1.77 1.68 1.59 1.52 1.48 1.46 1.42 1.39 1.36 1.33 1.33 1.31 1.28 1.24 1.18 1.11 1.04 1.01 1.01 1.00 0.96 0.92 0.88 0.85 0.82 0.77 0.74 0.74 0.76 0.79 0.86 0.94 1.03 1.08 1.04 0.97 0.94 0.91 0.87 0.82 0.89 0.98 1.04 1.08 1.05 0.97 0.94 0.92 0.92 0.91 0.93 0.98 1.00 1.01 0.98 0.94 0.95 1.00 1.03 1.05 1.11 1.15 1.11 1.09 1.07 1.00 1.02 1.03 1.06 1.10 1.08
1.93 2.00 2.01 2.05 2.06 2.10 2.10 2.07 2.03 2.00 1.97 1.99 1.95 1.89 1.85 1.78 1.71 1.65 1.54 1.49 1.50 1.54 1.50 1.43 1.38 1.35 1.33 1.30 1.25 1.19 1.17 1.14 1.10 1.05 1.00 0.96 0.94 0.93 0.91 0.87 0.81 0.78 0.77 0.78 0.80 0.84 0.88 0.93 0.99 0.98 0.94 0.93 0.92 0.88 0.85 0.91 0.99 0.99 1.00 1.03 1.02 1.02 1.00 1.05 1.03 0.99 0.97 0.99 0.97 0.95 0.94 0.97 1.00 1.06 1.11 1.15 1.19 1.23 1.22 1.20 1.15 1.05 0.96 0.91 0.85
1.79 1.88 1.95 1.99 2.00 2.00 2.02 2.05 2.08 2.09 2.08 1.98 1.95 1.92 1.91 1.88 1.84 1.83 1.70 1.58 1.52 1.52 1.51 1.51 1.50 1.45 1.40 1.36 1.30 1.26 1.24 1.23 1.18 1.13 1.10 1.07 1.06 1.05 1.02 1.00 0.95 0.90 0.86 0.86 0.86 0.84 0.87 0.89 0.91 0.88 0.89 0.88 0.89 0.88 0.86 0.86 0.84 0.90 0.94 0.94 0.95 0.94 0.99 1.15 1.21 1.16 1.11 1.08 1.07 1.04 1.03 1.03 1.04 1.07 1.08 1.10 1.07 1.10 1.11 0.99 0.88 0.91 0.87 0.81 0.84
1.68 1.77 1.83 1.91 1.97 2.01 2.02 2.01 2.00 2.02 2.09 2.08 2.04 2.02 2.04 1.98 1.98 1.96 1.86 1.75 1.65 1.60 1.57 1.57 1.59 1.57 1.51 1.45 1.40 1.33 1.30 1.31 1.27 1.21 1.17 1.16 1.15 1.12 1.11 1.07 1.04 1.01 0.98 0.98 0.97 0.95 0.92 0.89 0.89 0.91 0.87 0.85 0.88 0.88 0.88 0.87 0.82 0.81 0.82 0.83 0.84 0.86 0.89 0.95 1.05 1.25 1.26 1.24 1.19 1.17 1.14 1.13 1.11 1.09 1.09 1.09 1.08 1.07 0.97 0.79 0.76 0.81 0.77 0.76 0.74
1.50 1.61 1.73 1.84 1.91 1.96 2.01 2.03 2.04 2.02 2.01 2.04 2.10 2.15 2.14 2.12 2.11 2.10 1.98 1.92 1.85 1.84 1.75 1.66 1.61 1.63 1.62 1.57 1.52 1.43 1.38 1.37 1.34 1.28 1.25 1.24 1.23 1.24 1.22 1.18 1.13 1.11 1.09 1.07 1.09 1.06 1.04 1.01 0.95 0.92 0.92 0.94 0.93 0.96 0.95 0.92 0.87 0.86 0.84 0.80 0.75 0.73 0.78 0.93 0.97 0.96 1.12 1.21 1.25 1.26 1.26 1.25 1.23 1.22 1.20 1.16 1.12 1.08 1.04 0.95 0.91 0.83 0.72 0.71 0.72
1.37 1.48 1.59 1.72 1.81 1.87 1.93 1.97 2.02 2.05 2.05 2.06 2.12 2.10 2.15 2.15 2.17 2.17 2.14 2.08 2.02 1.98 1.94 1.82 1.67 1.58 1.59 1.58 1.57 1.55 1.46 1.44 1.43 1.35 1.31 1.28 1.27 1.29 1.30 1.23 1.18 1.17 1.17 1.15 1.12 1.15 1.14 1.12 1.09 1.02 0.98 0.97 1.01 1.04 1.03 1.00 0.94 0.92 0.92 0.85 0.79 0.74 0.82 0.88 0.96 1.07 1.11 1.23 1.21 1.25 1.27 1.33 1.34 1.30 1.25 1.23 1.18 1.11 1.04 0.99 0.93 0.87 0.79 0.76 0.76
1.28 1.32 1.39 1.50 1.67 1.79 1.85 1.88 1.91 1.97 2.06 2.12 2.16 2.15 2.16 2.13 2.14 2.12 2.08 2.03 1.94 1.83 1.75 1.66 1.62 1.71 1.73 1.57 1.53 1.54 1.56 1.50 1.51 1.45 1.40 1.35 1.33 1.32 1.32 1.30 1.28 1.27 1.26 1.24 1.22 1.18 1.20 1.20 1.20 1.18 1.10 1.05 1.04 1.05 1.07 1.06 1.03 1.01 0.99 0.92 0.87 0.92 1.01 0.99 1.05 1.10 1.07 1.09 1.19 1.33 1.36 1.38 1.36 1.33 1.31 1.27 1.18 1.17 1.14 1.03 0.98 0.97 0.91 0.83 0.77
1.22 1.25 1.26 1.30 1.43 1.62 1.73 1.79 1.84 1.88 1.96 2.05 2.13 2.16 2.17 2.13 2.10 2.12 2.08 2.00 1.93 1.86 1.78 1.76 1.73 1.73 1.76 1.69 1.56 1.52 1.57 1.59 1.57 1.57 1.50 1.45 1.41 1.40 1.38 1.38 1.39 1.37 1.34 1.33 1.32 1.28 1.27 1.29 1.30 1.30 1.25 1.18 1.13 1.11 1.10 1.10 1.10 1.09 1.04 0.99 1.00 1.01 1.00 1.08 1.13 1.19 1.22 1.23 1.21 1.17 1.19 1.25 1.28 1.26 1.25 1.23 1.26 1.29 1.23 1.13 1.02 1.03 1.07 1.03 0.96
1.15 1.18 1.23 1.25 1.28 1.35 1.52 1.65 1.72 1.82 1.89 1.94 1.97 2.05 2.14 2.09 2.05 2.08 2.03 2.00 1.98 1.97 1.96 1.94 1.86 1.76 1.72 1.73 1.72 1.65 1.62 1.65 1.64 1.59 1.55 1.53 1.50 1.48 1.48 1.48 1.50 1.50 1.45 1.40 1.40 1.41 1.44 1.43 1.44 1.44 1.40 1.34 1.27 1.22 1.19 1.17 1.16 1.12 1.04 1.02 1.02 1.03 1.05 1.06 1.09 1.11 1.12 1.14 1.18 1.20 1.22 1.21 1.14 1.08 1.06 1.04 1.07 1.11 1.17 1.23 1.30 1.21 1.12 1.12 1.12
1.10 1.11 1.15 1.20 1.23 1.27 1.33 1.46 1.57 1.70 1.80 1.88 1.93 1.98 2.05 2.08 2.08 2.07 2.03 1.96 1.94 1.95 1.92 1.90 1.84 1.76 1.71 1.71 1.74 1.76 1.76 1.81 1.83 1.75 1.66 1.61 1.56 1.54 1.54 1.55 1.57 1.56 1.55 1.51 1.53 1.54 1.53 1.55 1.56 1.56 1.52 1.47 1.41 1.35 1.31 1.27 1.21 1.15 1.12 1.08 1.06 1.08 1.10 1.08 1.06 1.03 1.02 1.01 1.00 1.01 1.06 1.14 1.16 1.11 1.07 1.04 1.04 1.11 1.13 1.11 1.12 1.27 1.32 1.25 1.20
1.02 1.03 1.07 1.13 1.18 1.21 1.24 1.33 1.42 1.53 1.66 1.72 1.78 1.90 1.98 2.04 2.02 2.08 2.05 2.01 2.00 1.96 1.93 1.96 1.91 1.87 1.90 1.86 1.89 1.94 1.96 1.95 1.92 1.95 1.86 1.74 1.67 1.62 1.59 1.58 1.60 1.63 1.60 1.60 1.62 1.62 1.65 1.67 1.66 1.63 1.59 1.55 1.51 1.45 1.39 1.32 1.26 1.22 1.21 1.18 1.17 1.17 1.13 1.09 1.05 1.03 0.99 0.95 0.95 0.96 0.98 1.03 1.09 1.12 1.13 1.10 1.13 1.18 1.16 1.17 1.18 1.14 1.17 1.28 1.36
0.93 0.95 0.99 1.04 1.09 1.13 1.16 1.22 1.30 1.37 1.42 1.53 1.64 1.77 1.86 1.92 1.95 2.02 2.08 2.03 2.01 2.01 1.99 1.99 1.99 1.98 2.00 2.01 2.04 2.05 2.06 2.01 2.01 1.99 1.96 1.87 1.79 1.71 1.64 1.62 1.62 1.66 1.70 1.70 1.70 1.69 1.67 1.65 1.63 1.60 1.59 1.58 1.55 1.47 1.38 1.33 1.31 1.31 1.30 1.30 1.29 1.23 1.17 1.12 1.07 1.02 0.97 0.98 0.99 0.98 1.01 1.08 1.12 1.15 1.19 1.19 1.10 1.03 1.06 1.08 1.04 1.03 1.08 1.08 1.13
0.87 0.89 0.92 0.95 1.01 1.06 1.09 1.12 1.15 1.21 1.33 1.41 1.48 1.59 1.79 1.85 1.85 1.89 1.97 2.00 2.01 2.01 2.02 1.99 1.96 1.95 1.91 1.92 1.94 1.95 1.99 1.97 1.92 2.02 2.06 1.96 1.88 1.76 1.73 1.68 1.70 1.72 1.70 1.67 1.65 1.64 1.62 1.61 1.60 1.60 1.60 1.59 1.55 1.51 1.45 1.43 1.39 1.35 1.34 1.33 1.29 1.26 1.21 1.15 1.10 1.07 1.03 1.03 1.05 1.08 1.13 1.17 1.22 1.24 1.23 1.18 1.07 1.05 1.11 1.07 1.03 1.07 1.11 1.14 1.13
0.80 0.82 0.84 0.88 0.91 0.99 1.04 1.06 1.06 1.08 1.18 1.29 1.33 1.38 1.53 1.68 1.76 1.77 1.80 1.88 1.93 1.96 1.98 1.97 1.93 1.92 1.92 1.96 1.94 1.89 1.82 1.78 1.84 1.88 2.00 1.99 2.06 1.91 1.84 1.81 1.80 1.79 1.76 1.75 1.73 1.71 1.68 1.69 1.69 1.72 1.73 1.67 1.57 1.49 1.43 1.41 1.39 1.34 1.32 1.33 1.31 1.31 1.29 1.26 1.24 1.21 1.21 1.22 1.18 1.20 1.21 1.23 1.19 1.19 1.22 1.22 1.18 1.14 1.15 1.14 1.12 1.08 1.14 1.18 1.11
0.76 0.79 0.81 0.83 0.85 0.90 0.97 1.03 1.04 1.03 1.07 1.15 1.26 1.34 1.35 1.40 1.54 1.69 1.84 1.83 1.79 1.81 1.89 1.95 1.97 1.99 2.02 2.00 1.93 1.85 1.82 1.84 1.99 2.07 2.01 2.08 2.10 2.06 1.99 1.95 1.89 1.88 1.95 1.96 1.86 1.74 1.66 1.67 1.70 1.70 1.69 1.65 1.59 1.50 1.44 1.40 1.36 1.38 1.36 1.33 1.32 1.32 1.32 1.29 1.23 1.22 1.26 1.28 1.26 1.26 1.24 1.26 1.25 1.25 1.26 1.25 1.26 1.27 1.30 1.22 1.24 1.22 1.25 1.26 1.13
0.69 0.74 0.78 0.79 0.81 0.85 0.89 0.93 0.98 1.01 1.03 1.06 1.10 1.17 1.33 1.37 1.40 1.44 1.53 1.71 1.77 1.76 1.77 1.79 1.92 2.01 2.01 2.03 2.05 1.93 1.85 1.93 2.08 2.12 2.16 2.22 2.19 2.17 2.11 2.00 1.93 1.89 1.93 2.01 1.88 1.63 1.45 1.32 1.40 1.48 1.58 1.62 1.61 1.59 1.51 1.46 1.42 1.40 1.40 1.41 1.41 1.40 1.39 1.37 1.34 1.34 1.37 1.36 1.36 1.35 1.35 1.37 1.36 1.37 1.35 1.30 1.28 1.31 1.36 1.33 1.25 1.26 1.21 1.19 1.15
0.67 0.71 0.74 0.75 0.79 0.80 0.80 0.85 0.94 0.99 1.02 1.03 1.05 1.05 1.08 1.22 1.32 1.33 1.38 1.45 1.54 1.65 1.73 1.78 1.83 1.89 1.91 1.89 1.99 2.07 2.04 2.02 2.03 2.17 2.29 2.28 2.22 2.14 2.09 2.08 2.00 1.95 1.97 1.90 1.73 1.57 1.47 1.45 1.50 1.56 1.58 1.62 1.64 1.72 1.73 1.67 1.60 1.54 1.50 1.52 1.54 1.51 1.48 1.46 1.46 1.44 1.40 1.39 1.39 1.38 1.41 1.40 1.38 1.43 1.43 1.42 1.36 1.32 1.34 1.35 1.34 1.34 1.29 1.24 1.18
0.65 0.68 0.71 0.72 0.74 0.77 0.80 0.83 0.88 0.93 0.98 1.02 1.01 1.00 1.00 1.02 1.09 1.25 1.32 1.33 1.37 1.45 1.55 1.66 1.73 1.78 1.84 1.83 1.81 1.88 2.00 2.03 2.04 2.18 2.30 2.30 2.21 2.14 2.14 2.06 2.01 1.97 1.92 1.87 1.69 1.60 1.60 1.58 1.60 1.62 1.69 1.68 1.70 1.76 1.77 1.79 1.78 1.72 1.63 1.53 1.53 1.58 1.58 1.52 1.57 1.57 1.51 1.44 1.39 1.38 1.38 1.39 1.41 1.42 1.43 1.43 1.44 1.42 1.39 1.34 1.33 1.32 1.28 1.33 1.31
0.68 0.68 0.70 0.70 0.72 0.74 0.76 0.80 0.84 0.87 0.92 0.97 0.99 0.99 0.97 0.97 0.96 1.02 1.18 1.28 1.29 1.32 1.37 1.51 1.64 1.73 1.79 1.84 1.89 1.87 1.91 2.04 2.14 2.12 2.14 2.23 2.21 2.18 2.13 2.13 2.06 2.05 1.98 1.82 1.70 1.66 1.65 1.61 1.60 1.63 1.71 1.72 1.73 1.80 1.81 1.84 1.88 1.88 1.81 1.65 1.57 1.60 1.63 1.68 1.73 1.68 1.64 1.59 1.55 1.47 1.44 1.43 1.43 1.43 1.43 1.43 1.41 1.36 1.40 1.38 1.39 1.36 1.31 1.27 1.29
0.68 0.68 0.69 0.71 0.71 0.71 0.72 0.75 0.78 0.82 0.88 0.94 0.98 1.00 1.00 1.00 0.99 1.01 1.01 1.06 1.16 1.28 1.34 1.40 1.50 1.60 1.68 1.77 1.83 1.84 1.87 1.92 2.00 2.07 2.12 2.17 2.17 2.13 2.07 2.03 2.04 2.04 1.96 1.79 1.71 1.62 1.59 1.61 1.65 1.64 1.72 1.80 1.80 1.82 1.86 1.91 1.95 1.95 1.91 1.82 1.76 1.76 1.77 1.82 1.81 1.75 1.73 1.73 1.68 1.62 1.57 1.53 1.54 1.49 1.45 1.45 1.46 1.45 1.42 1.38 1.38 1.38 1.34 1.29 1.27
0.71 0.72 0.74 0.75 0.71 0.70 0.72 0.73 0.75 0.79 0.83 0.87 0.93 0.98 1.00 1.01 1.01 0.99 0.99 1.01 1.03 1.04 1.13 1.27 1.38 1.46 1.52 1.58 1.68 1.77 1.78 1.81 1.87 1.95 2.03 2.07 2.08 2.08 2.00 1.91 1.85 1.84 1.83 1.81 1.72 1.61 1.63 1.69 1.66 1.71 1.77 1.82 1.84 1.85 1.86 1.93 1.99 1.99 1.93 1.87 1.86 1.85 1.85 1.83 1.81 1.83 1.82 1.81 1.79 1.74 1.69 1.62 1.59 1.58 1.56 1.54 1.52 1.48 1.48 1.51 1.49 1.43 1.39 1.39 1.37
0.75 0.73 0.72 0.74 0.72 0.72 0.73 0.74 0.76 0.78 0.80 0.83 0.89 0.94 0.99 1.00 1.00 1.02 1.03 1.03 1.04 1.06 1.09 1.16 1.21 1.27 1.37 1.53 1.66 1.71 1.74 1.76 1.78 1.84 1.95 1.96 1.99 2.04 1.92 1.85 1.85 1.86 1.82 1.79 1.74 1.68 1.72 1.72 1.73 1.80 1.90 1.91 1.93 1.93 1.93 1.94 1.97 1.99 1.97 1.93 1.88 1.88 1.86 1.84 1.84 1.84 1.85 1.86 1.84 1.83 1.81 1.76 1.70 1.67 1.67 1.63 1.58 1.57 1.58 1.57 1.56 1.57 1.52 1.46 1.44
0.80 0.75 0.71 0.72 0.74 0.75 0.76 0.76 0.76 0.76 0.78 0.80 0.81 0.84 0.91 0.99 1.03 1.03 1.02 1.02 1.02 1.05 1.07 1.09 1.14 1.19 1.28 1.42 1.53 1.55 1.62 1.68 1.70 1.76 1.84 1.87 1.88 1.97 2.01 2.00 1.92 1.91 1.87 1.87 1.83 1.78 1.74 1.72 1.76 1.83 1.94 1.99 2.02 2.06 2.09 2.08 2.08 2.07 2.03 2.00 1.97 1.93 1.90 1.90 1.91 1.91 1.89 1.87 1.87 1.89 1.90 1.88 1.87 1.83 1.76 1.68 1.64 1.63 1.62 1.63 1.63 1.63 1.63 1.59 1.56
0.83 0.80 0.77 0.75 0.76 0.77 0.73 0.73 0.74 0.73 0.74 0.77 0.81 0.83 0.85 0.90 0.96 1.01 1.01 1.01 1.02 1.01 1.00 1.04 1.07 1.08 1.11 1.22 1.34 1.39 1.43 1.52 1.61 1.68 1.75 1.81 1.79 1.76 1.90 1.97 1.98 1.94 1.85 1.80 1.75 1.72 1.72 1.78 1.84 1.93 2.07 2.16 2.19 2.16 2.15 2.13 2.14 2.13 2.11 2.08 2.06 2.03 1.99 1.98 1.95 1.92 1.91 1.90 1.89 1.91 1.92 1.91 1.92 1.93 1.89 1.82 1.78 1.76 1.73 1.67 1.59 1.55 1.57 1.58 1.61
0.83 0.80 0.78 0.73 0.70 0.69 0.69 0.69 0.69 0.70 0.72 0.76 0.79 0.81 0.81 0.83 0.87 0.93 0.99 0.99 0.99 0.99 0.99 0.99 1.01 1.03 1.08 1.16 1.17 1.27 1.34 1.36 1.40 1.45 1.58 1.73 1.83 1.83 1.84 1.87 1.90 1.87 1.84 1.76 1.69 1.68 1.68 1.74 1.90 2.07 2.10 2.17 2.22 2.23 2.23 2.28 2.21 2.12 2.11 2.14 2.12 2.10 2.05 2.02 2.00 1.99 1.95 1.90 1.89 1.91 1.91 1.92 1.97 2.01 2.02 1.94 1.88 1.89 1.85 1.79 1.74 1.71 1.62 1.59 1.61
0.83 0.81 0.78 0.75 0.72 0.71 0.71 0.70 0.70 0.71 0.72 0.73 0.75 0.79 0.80 0.80 0.81 0.84 0.91 0.95 0.96 0.96 0.96 0.95 0.97 1.03 1.07 1.06 1.08 1.14 1.21 1.30 1.33 1.38 1.47 1.59 1.69 1.72 1.72 1.75 1.76 1.73 1.69 1.71 1.74 1.78 1.85 1.93 1.92 1.94 2.00 2.03 2.00 1.97 2.05 2.14 2.15 2.14 2.16 2.20 2.12 2.11 2.12 2.07 2.02 2.00 1.99 2.00 1.95 1.96 1.95 1.97 2.03 2.03 1.95 1.86 1.84 1.87 1.87 1.85 1.84 1.83 1.81 1.75 1.74
0.85 0.82 0.79 0.75 0.72 0.70 0.70 0.69 0.69 0.69 0.72 0.73 0.76 0.78 0.79 0.80 0.81 0.82 0.84 0.89 0.95 0.96 0.96 0.95 0.96 1.02 1.05 1.04 1.05 1.09 1.11 1.26 1.36 1.37 1.40 1.45 1.55 1.63 1.64 1.66 1.68 1.64 1.63 1.63 1.66 1.74 1.88 2.01 2.08 2.11 2.11 2.08 2.11 2.06 1.97 1.96 2.00 2.04 2.03 2.06 2.11 2.04 2.01 2.01 2.02 2.04 2.05 2.02 2.03 2.02 2.02 2.05 2.02 1.91 1.76 1.77 1.89 1.90 1.88 1.88 1.90 1.88 1.85 1.87 1.86
0.84 0.81 0.77 0.76 0.74 0.72 0.70 0.69 0.71 0.72 0.73 0.73 0.74 0.76 0.78 0.79 0.81 0.81 0.81 0.83 0.89 0.94 0.95 0.95 0.95 0.98 1.02 1.03 1.03 1.07 1.10 1.18 1.32 1.34 1.36 1.42 1.47 1.53 1.57 1.62 1.68 1.68 1.66 1.65 1.66 1.67 1.71 1.77 1.86 1.93 1.98 2.03 2.03 2.00 2.03 1.99 2.01 2.06 2.10 2.14 2.13 2.05 2.00 2.09 2.11 2.10 2.11 2.09 2.08 2.07 2.01 2.03 2.05 1.96 1.93 1.98 1.94 1.90 1.91 1.91 1.93 1.97 1.94 1.92 1.91
0.83 0.81 0.79 0.78 0.75 0.73 0.72 0.72 0.74 0.74 0.73 0.73 0.74 0.77 0.79 0.79 0.79 0.81 0.81 0.82 0.84 0.89 0.92 0.93 0.94 0.96 0.96 0.99 1.02 1.06 1.08 1.11 1.19 1.30 1.34 1.37 1.40 1.44 1.48 1.52 1.58 1.65 1.66 1.67 1.69 1.68 1.67 1.68 1.69 1.70 1.75 1.84 1.97 2.02 2.02 2.05 2.07 2.08 2.09 2.16 2.21 2.18 2.04 2.09 2.05 2.04 2.05 2.03 2.02 2.06 2.12 2.06 2.04 1.98 1.89 1.85 1.90 1.95 1.96 1.95 1.90 1.89 1.86 1.81 1.79
0.82 0.82 0.80 0.78 0.76 0.76 0.75 0.75 0.74 0.75 0.74 0.74 0.76 0.77 0.78 0.80 0.80 0.80 0.80 0.81 0.82 0.85 0.88 0.92 0.93 0.93 0.93 0.95 0.99 1.03 1.04 1.07 1.12 1.21 1.30 1.33 1.33 1.35 1.38 1.44 1.50 1.55 1.58 1.61 1.66 1.69 1.68 1.67 1.67 1.67 1.68 1.70 1.74 1.79 1.85 1.92 1.99 2.02 2.03 1.98 2.01 2.02 1.99 1.97 2.01 2.02 2.01 1.98 2.02 1.99 2.01 2.02 2.01 1.96 1.90 1.87 1.84 1.81 1.80 1.80 1.79 1.78 1.79 1.78 1.76
0.83 0.82 0.80 0.78 0.76 0.75 0.74 0.76 0.77 0.76 0.76 0.75 0.75 0.77 0.79 0.80 0.79 0.80 0.80 0.80 0.81 0.82 0.85 0.89 0.91 0.91 0.92 0.92 0.94 0.98 1.03 1.05 1.07 1.11 1.21 1.26 1.30 1.32 1.33 1.36 1.39 1.42 1.48 1.54 1.58 1.60 1.58 1.59 1.59 1.59 1.59 1.61 1.64 1.65 1.64 1.64 1.68 1.75 1.83 1.89 1.90 1.92 1.93 1.93 1.94 1.97 1.98 1.97 1.96 1.96 1.96 1.94 1.91 1.89 1.85 1.81 1.77 1.73 1.69 1.71 1.72 1.71 1.69 1.68 1.70
0.81 0.81 0.79 0.78 0.76 0.75 0.75 0.76 0.77 0.77 0.76 0.75 0.75 0.75 0.78 0.79 0.80 0.80 0.80 0.80 0.81 0.81 0.82 0.85 0.87 0.89 0.90 0.91 0.92 0.95 1.01 1.05 1.06 1.09 1.15 1.24 1.26 1.29 1.32 1.34 1.34 1.37 1.40 1.46 1.51 1.53 1.54 1.53 1.51 1.49 1.47 1.50 1.52 1.54 1.55 1.56 1.57 1.58 1.61 1.63 1.65 1.68 1.74 1.77 1.80 1.81 1.83 1.84 1.86 1.87 1.87 1.85 1.80 1.75 1.72 1.71 1.70 1.69 1.66 1.66 1.68 1.68 1.69 1.71 1.71
0.81 0.81 0.80 0.78 0.76 0.75 0.75 0.77 0.77 0.76 0.76 0.76 0.77 0.77 0.77 0.79 0.81 0.81 0.81 0.81 0.81 0.82 0.82 0.82 0.83 0.85 0.87 0.89 0.91 0.93 0.98 1.03 1.05 1.07 1.10 1.16 1.26 1.28 1.31 1.33 1.33 1.33 1.35 1.40 1.44 1.46 1.48 1.48 1.47 1.45 1.43 1.42 1.42 1.42 1.46 1.48 1.50 1.53 1.56 1.58 1.61 1.62 1.63 1.63 1.65 1.67 1.69 1.71 1.73 1.74 1.74 1.71 1.66 1.64 1.64 1.65 1.62 1.60 1.60 1.61 1.65 1.68 1.72 1.73 1.71
0.81 0.81 0.80 0.79 0.78 0.76 0.75 0.76 0.76 0.77 0.76 0.76 0.77 0.78 0.78 0.79 0.80 0.81 0.81 0.81 0.81 0.81 0.81 0.82 0.82 0.83 0.85 0.87 0.90 0.93 0.97 1.01 1.05 1.07 1.09 1.12 1.18 1.28 1.31 1.32 1.33 1.34 1.36 1.41 1.45 1.45 1.44 1.43 1.42 1.41 1.40 1.38 1.38 1.39 1.40 1.40 1.42 1.44 1.47 1.51 1.53 1.54 1.54 1.55 1.57 1.61 1.64 1.66 1.67 1.66 1.65 1.63 1.64 1.65 1.65 1.63 1.61 1.61 1.59 1.58 1.62 1.64 1.63 1.63 1.65
0.82 0.82 0.81 0.80 0.78 0.77 0.75 0.74 0.75 0.75 0.75 0.76 0.77 0.78 0.79 0.80 0.80 0.81 0.82 0.82 0.82 0.81 0.81 0.81 0.82 0.83 0.84 0.85 0.88 0.92 0.96 1.00 1.03 1.05 1.07 1.10 1.13 1.17 1.26 1.29 1.30 1.31 1.31 1.33 1.36 1.38 1.39 1.40 1.41 1.40 1.36 1.35 1.36 1.36 1.36 1.34 1.34 1.36 1.39 1.41 1.44 1.46 1.48 1.49 1.50 1.52 1.54 1.54 1.56 1.57 1.57 1.57 1.57 1.57 1.57 1.55 1.52 1.52 1.51 1.53 1.56 1.58 1.61 1.64 1.66
0.81 0.82 0.82 0.81 0.79 0.77 0.77 0.76 0.75 0.76 0.77 0.78 0.78 0.78 0.79 0.79 0.80 0.82 0.82 0.82 0.82 0.82 0.82 0.83 0.83 0.83 0.83 0.84 0.85 0.88 0.93 0.98 1.02 1.05 1.07 1.09 1.11 1.14 1.19 1.27 1.28 1.29 1.28 1.29 1.32 1.33 1.34 1.34 1.33 1.34 1.34 1.32 1.31 1.29 1.29 1.30 1.31 1.32 1.35 1.36 1.38 1.41 1.43 1.46 1.49 1.51 1.52 1.53 1.54 1.56 1.55 1.53 1.50 1.49 1.48 1.49 1.50 1.51 1.52 1.55 1.59 1.65 1.67 1.68 1.69
0.78 0.79 0.81 0.81 0.80 0.79 0.77 0.76 0.75 0.76 0.76 0.77 0.78 0.78 0.79 0.79 0.80 0.82 0.83 0.83 0.82 0.82 0.83 0.84 0.83 0.84 0.83 0.84 0.85 0.86 0.89 0.95 1.01 1.05 1.07 1.09 1.11 1.13 1.15 1.20 1.26 1.27 1.27 1.26 1.28 1.29 1.30 1.30 1.30 1.30 1.30 1.29 1.28 1.26 1.24 1.24 1.26 1.28 1.31 1.33 1.36 1.38 1.40 1.42 1.44 1.46 1.47 1.48 1.50 1.50 1.47 1.45 1.43 1.42 1.43 1.45 1.47 1.48 1.49 1.53 1.58 1.60 1.60 1.61 1.60
Wind_Speed
22 23 23 22 22 21 21 21 21 21 20 20 19 19 18 18 17 16 16 15 14 14 13 12 12 11 10 10 9 9 9 9 8 8 8 7 7 7 7 7 7 7 7 7 7 7 8 8 8 8 8 8 8 8 8 8 8 7 8 8 9 10 10 10 10 9 9 9 9 8 9 8 8 8 8 9 9 10 10 11 11 12 12 12 12
23 23 23 23 23 22 22 21 21 21 21 21 21 20 19 19 18 17 17 16 16 15 14 14 13 12 11 11 10 10 10 10 9 9 8 8 8 8 8 7 7 7 7 7 8 8 8 8 8 9 9 9 9 9 9 8 8 8 8 9 9 10 10 11 11 11 10 10 10 10 10 10 9 10 10 10 11 11 12 12 12 12 13 14 14
24 23 23 23 24 23 23 22 22 22 22 22 22 21 20 20 19 19 18 18 17 17 16 15 14 14 13 12 11 11 10 10 10 10 10 9 9 8 8 8 8 8 8 8 8 8 8 9 9 9 9 9 9 9 9 9 9 9 9 9 9 10 10 11 11 12 12 11 11 11 11 11 11 12 12 12 12 13 13 13 14 14 14 15 15
24 24 23 23 23 24 24 23 23 22 22 22 22 22 22 21 20 20 20 19 18 18 17 16 15 15 14 14 13 12 12 11 11 11 11 10 10 10 9 9 9 9 9 9 9 9 9 9 9 9 9 9 9 9 9 10 9 9 10 9 9 10 10 11 12 12 12 12 12 13 13 13 13 13 13 13 14 14 14 15 15 15 16 16 16
24 24 24 23 23 24 24 24 23 23 23 22 23 23 23 22 21 21 21 20 20 19 18 18 17 16 16 15 14 14 13 13 12 12 12 11 11 11 10 10 10 10 10 10 9 9 9 9 9 9 10 10 10 10 10 10 10 10 10 10 10 10 11 11 12 12 13 13 13 13 14 14 14 14 14 14 14 15 15 15 16 16 16 17 17
24 24 24 24 23 24 24 24 24 24 24 23 23 23 23 23 22 22 22 21 21 20 19 19 18 18 17 17 16 15 15 14 14 13 13 12 12 12 11 11 11 11 11 11 10 10 10 10 10 10 10 10 10 10 10 11 11 11 11 11 11 11 11 11 12 12 13 13 14 14 14 14 14 14 14 15 15 15 16 16 16 16 16 17 17
23 24 24 24 24 24 24 24 24 25 24 24 24 23 23 23 23 23 22 22 22 22 21 20 19 19 19 18 17 17 16 16 15 15 14 14 13 13 12 12 12 12 12 12 11 11 11 11 11 11 11 12 11 11 11 11 11 11 12 12 12 12 12 12 12 12 13 13 14 14 14 14 14 14 15 15 16 16 17 16 16 16 16 17 18
24 24 25 25 24 24 24 24 24 25 25 25 25 24 24 24 24 24 23 23 23 23 22 22 21 20 20 20 19 18 18 17 17 16 16 15 15 14 14 13 13 13 13 13 13 12 12 12 12 12 12 13 12 12 12 12 12 12 12 12 12 12 13 13 13 13 13 14 14 14 14 14 15 15 15 16 16 17 16 16 17 17 17 17 18
24 25 25 26 25 25 25 24 24 25 25 26 26 26 25 24 24 24 24 24 23 23 23 23 22 21 21 21 20 20 19 19 18 18 17 17 17 16 15 15 15 14 14 14 14 14 14 13 13 13 13 13 14 13 13 12 12 12 12 12 12 13 13 13 13 13 13 14 14 14 15 15 15 15 15 15 16 16 16 16 17 17 17 17 17
23 24 25 26 26 26 26 26 25 25 26 26 26 27 26 26 25 25 25 25 24 24 24 24 23 23 22 22 21 21 20 20 20 20 19 18 18 17 17 16 16 16 16 16 16 15 15 15 15 14 14 14 14 15 15 14 14 14 13 13 13 13 13 13 13 13 14 14 14 14 14 14 14 15 15 15 15 16 16 16 17 17 17 17 17
22 23 24 25 26 27 27 27 26 26 26 26 27 27 27 27 27 26 26 26 25 25 25 25 25 24 23 23 22 22 22 22 22 22 21 21 20 19 19 18 18 18 18 18 17 17 17 16 16 16 15 15 15 16 16 16 16 16 16 15 15 15 15 14 14 14 14 14 14 14 14 15 15 15 15 15 16 16 17 17 17 17 17 17 18
22 23 24 25 26 27 28 27 27 27 27 27 27 28 28 28 28 27 27 27 27 26 26 26 26 25 25 24 24 23 23 23 23 23 23 23 22 21 20 20 19 19 19 19 19 19 18 18 17 17 17 17 16 17 17 17 17 17 17 17 17 17 17 16 16 15 15 15 15 15 15 15 15 15 16 16 17 17 18 18 18 18 18 18 18
22 23 24 25 25 26 27 27 28 28 28 28 28 29 29 29 28 28 28 28 28 28 28 27 27 27 26 26 25 24 24 24 24 24 24 24 24 23 23 22 21 20 20 20 20 20 20 20 19 19 18 18 17 17 17 17 18 18 18 18 18 18 19 19 18 18 18 17 17 17 17 17 17 17 17 17 18 18 19 19 20 20 19 19 19
21 22 23 24 24 24 26 27 28 28 29 29 30 30 30 30 29 29 29 30 29 29 29 29 29 28 28 28 27 26 25 25 25 25 26 26 26 25 25 24 23 23 22 21 21 21 20 21 21 20 20 20 19 19 18 18 18 18 19 19 19 19 19 20 20 20 20 20 20 19 19 19 19 19 19 19 19 20 20 20 20 20 20 20 20
20 20 21 22 23 23 24 25 27 28 29 30 31 31 31 31 31 30 30 30 30 30 30 30 30 30 29 29 29 28 28 27 26 26 26 27 27 26 26 26 26 25 25 24 24 23 22 22 22 22 22 22 21 21 21 20 20 20 20 20 20 20 20 20 20 21 21 21 21 21 21 21 21 21 20 20 20 20 20 20 20 20 20 20 20
21 21 21 21 22 23 24 25 26 27 29 30 31 31 32 32 32 31 31 31 31 31 31 31 31 30 30 30 30 30 29 29 28 28 28 28 28 27 27 27 27 27 27 26 26 26 25 24 24 24 24 23 23 23 23 22 22 22 21 21 21 21 21 21 21 22 22 22 22 23 23 22 22 22 21 21 20 20 20 20 20 20 20 20 20
21 22 21 22 22 24 25 26 27 27 29 30 32 32 33 33 33 33 33 32 32 32 31 31 31 31 31 31 31 30 30 30 30 30 30 30 29 28 28 28 28 28 28 27 27 27 27 27 27 26 26 26 25 25 25 24 24 23 23 23 22 22 22 21 21 22 23 23 23 24 24 24 23 23 22 22 21 21 21 21 20 20 21 21 21
21 22 23 23 24 25 25 26 28 29 29 31 32 33 34 34 34 34 34 34 33 33 32 31 31 31 31 31 31 31 31 31 31 31 31 31 30 30 30 29 28 28 28 28 28 28 28 29 29 28 28 27 27 27 26 26 25 25 25 24 24 24 23 23 22 22 23 23 24 24 24 24 24 24 23 23 23 22 22 22 22 22 22 21 21
20 21 23 24 24 25 26 27 28 29 31 32 32 32 33 33 32 33 34 34 34 33 33 33 32 32 32 32 32 32 32 32 32 32 32 32 31 31 31 30 29 29 29 28 29 29 29 29 30 30 30 29 28 28 28 27 27 26 26 26 26 26 25 24 24 23 23 23 24 24 25 25 25 25 25 25 24 24 24 24 23 23 23 23 22
20 21 22 23 24 25 26 27 28 29 31 33 33 32 31 32 32 31 31 32 32 32 32 32 32 33 33 32 32 32 32 32 32 32 33 33 33 32 32 31 30 30 29 29 29 29 29 30 30 31 31 31 31 30 29 29 29 28 27 27 27 27 26 26 25 25 24 24 24 25 25 26 26 26 26 26 25 25 25 25 25 24 24 24 24
22 22 22 23 24 25 26 27 28 29 30 32 34 33 32 32 32 32 32 31 30 31 31 31 32 33 33 33 33 33 33 33 33 33 33 34 34 34 33 32 31 31 30 30 30 30 30 30 30 31 32 32 32 32 31 31 30 30 29 29 29 28 27 27 26 26 26 26 26 26 26 26 26 26 26 26 25 25 25 25 25 25 25 25 25
24 24 23 24 24 25 26 27 28 29 30 31 32 33 33 33 32 32 32 32 31 32 32 33 33 34 34 34 34 34 34 34 33 33 34 34 34 35 34 33 32 32 32 32 31 31 31 31 31 31 31 32 33 33 33 32 32 31 31 31 30 29 29 28 28 27 26 27 27 27 27 26 26 26 26 25 25 25 25 25 25 25 25 25 25
27 26 26 25 25 26 26 27 28 29 30 31 32 32 33 34 33 33 32 32 32 33 34 34 35 35 35 34 34 34 34 34 34 34 34 34 35 35 35 34 33 33 33 33 32 32 32 32 32 31 31 32 32 32 32 32 32 32 33 33 32 31 30 29 29 29 28 28 28 27 27 26 26 26 26 25 25 25 25 25 25 26 26 26 26
30 29 28 28 28 27 27 27 28 29 30 31 32 32 32 33 34 34 34 33 33 33 34 35 35 36 36 36 36 35 35 35 35 34 34 34 35 35 35 35 35 34 34 33 33 33 32 32 32 32 31 31 32 32 32 32 32 32 33 33 32 32 31 30 30 30 30 30 29 29 28 27 27 27 27 26 25 25 25 25 26 26 26 26 26
33 32 31 30 30 30 29 29 29 29 30 31 31 32 32 32 33 34 35 35 34 34 34 35 36 37 37 36 36 36 36 36 36 35 35 35 35 35 35 35 35 35 35 34 34 34 33 32 32 32 32 32 32 32 32 32 32 32 32 32 32 32 31 31 30 30 30 30 30 30 29 29 28 28 28 27 26 26 25 26 26 26 26 26 26
35 35 34 33 32 32 31 31 30 30 30 31 31 32 32 32 33 34 35 35 35 35 34 35 36 37 37 36 36 36 35 35 35 35 35 35 35 35 35 35 35 35 35 35 35 35 34 33 33 32 32 32 33 32 32 32 32 32 32 32 32 31 31 31 30 30 30 30 29 29 29 29 29 28 28 27 27 26 26 26 26 26 26 26 26
37 37 36 36 35 34 33 33 33 32 31 30 30 31 32 32 33 33 34 35 35 36 36 35 35 36 37 36 36 36 35 34 35 35 35 35 35 35 35 35 35 35 35 35 35 35 35 35 35 34 34 33 33 33 33 33 33 33 32 32 32 32 31 30 30 30 29 29 29 29 29 28 28 27 26 26 27 26 26 26 26 26 26 26 26
39 38 38 38 37 36 36 35 35 34 32 31 30 30 30 31 32 33 34 34 35 35 36 36 36 35 35 35 35 35 34 34 35 36 36 36 35 35 35 35 35 35 35 35 35 35 34 34 35 35 35 35 34 34 34 33 33 33 32 32 32 32 31 30 29 29 29 28 28 28 27 27 27 26 25 25 26 26 25 25 25 26 26 26 27
40 40 39 39 38 37 37 36 36 35 34 33 32 31 31 31 31 32 33 34 35 36 36 37 37 36 35 35 34 34 33 34 34 35 36 35 34 33 33 34 34 34 34 34 34 34 34 35 35 36 35 35 34 34 33 33 32 31 31 30 30 30 30 30 29 29 28 27 27 27 27 26 26 26 25 25 25 25 25 25 25 26 26 27 27
40 40 40 39 39 38 38 38 37 37 36 35 34 34 33 32 31 32 32 33 35 36 37 37 38 37 37 36 35 35 34 34 34 36 37 36 34 32 32 32 33 33 33 33 33 34 34 34 35 35 35 35 34 33 32 31 31 30 30 29 28 28 28 28 29 29 28 28 28 27 27 27 26 26 25 25 25 25 25 26 26 26 26 27 27
41 41 40 40 40 39 39 39 39 38 37 36 36 35 35 34 33 33 33 33 34 35 36 37 37 38 38 37 37 37 36 36 36 38 38 37 35 33 32 32 32 33 33 33 33 33 33 33 34 34 35 35 34 33 32 31 30 30 30 30 29 28 28 27 27 28 28 28 28 28 28 28 28 27 26 26 26 26 26 26 26 26 27 27 27
42 42 41 41 41 41 40 40 40 40 39 38 37 37 36 36 35 34 34 34 34 35 35 36 36 37 37 38 38 38 37 38 38 38 38 36 35 34 33 32 33 32 33 34 34 33 33 33 33 34 34 34 33 33 32 31 31 31 31 31 30 29 29 28 27 27 28 28 28 29 29 29 29 29 28 27 27 27 26 26 26 26 27 27 28
44 43 43 42 42 41 41 41 41 41 40 40 39 38 38 37 36 35 35 35 35 35 35 35 36 36 36 37 37 38 38 39 38 38 36 34 33 33 33 34 34 34 33 34 34 34 33 33 33 34 34 34 34 34 33 33 32 32 32 32 31 30 30 29 29 28 28 28 28 28 29 29 29 30 30 29 29 28 28 27 27 27 28 28 28
45 45 44 43 43 42 42 42 42 42 42 41 41 40 39 39 38 37 37 36 35 35 35 36 36 36 36 36 37 38 38 39 39 38 36 34 33 34 34 34 34 34 34 35 35 35 35 34 33 33 34 34 35 35 34 33 33 33 33 33 33 32 31 30 30 30 29 29 29 29 29 29 29 29 29 29 29 29 29 29 29 28 28 28 28
46 45 45 44 44 43 43 43 43 43 42 42 42 41 41 40 40 39 38 37 36 36 36 36 36 36 36 36 37 37 37 37 37 37 36 35 34 34 34 34 34 34 35 35 35 35 34 33 32 33 34 34 35 35 35 34 35 35 34 34 34 33 33 32 32 31 31 30 30 30 30 30 30 30 30 30 30 30 30 30 30 30 29 29 29
46 45 45 45 45 44 44 44 43 43 43 43 43 43 42 42 41 40 39 39 38 37 37 36 36 36 37 36 36 36 36 36 36 36 36 36 35 34 34 34 35 35 35 35 34 34 34 33 32 33 34 35 36 36 36 36 37 36 35 35 34 34 34 33 33 32 32 32 32 31 31 31 31 31 31 31 31 32 31 31 31 31 30 30 30
45 45 45 46 45 45 44 44 44 44 44 44 44 44 43 43 42 41 41 40 39 38 38 37 36 36 36 36 36 36 37 37 37 36 36 36 36 35 34 33 33 33 34 34 33 32 33 34 34 34 35 36 37 38 37 37 37 37 36 35 35 34 34 33 32 32 32 32 32 32 31 31 31 31 32 32 32 32 32 32 33 33 32 32 32
46 45 46 46 46 45 45 45 45 45 44 44 44 44 44 44 43 43 42 42 41 40 39 38 37 37 36 36 37 37 38 37 37 36 35 35 35 35 34 33 32 32 33 34 34 34 34 35 37 37 38 38 39 39 39 38 38 37 37 36 35 35 34 33 33 32 32 32 32 32 32 32 32 32 33 32 32 32 32 33 33 34 34 33 34
45 46 46 46 46 46 46 46 46 45 45 44 44 44 44 44 44 43 43 42 42 41 40 39 39 38 37 36 36 37 37 37 37 36 35 35 35 34 34 33 32 32 33 35 35 36 36 37 37 38 38 38 39 39 39 39 38 38 38 37 36 35 34 33 33 32 32 32 32 32 33 34 34 34 33 33 33 33 34 34 34 34 34 34 35
44 46 46 46 46 46 46 46 46 46 45 45 45 44 44 44 44 43 43 43 43 42 41 40 39 39 38 37 37 37 37 37 37 37 36 36 35 35 34 33 32 32 32 33 34 36 37 36 36 37 37 38 37 38 38 38 38 38 38 38 36 34 32 32 31 31 31 31 31 32 33 34 34 33 33 33 34 35 35 35 35 35 36 36 36
43 45 45 46 47 47 47 47 47 46 46 45 45 45 45 44 44 43 43 43 43 42 42 41 40 39 39 38 37 37 38 38 38 37 37 37 37 36 36 35 34 33 33 33 34 35 36 36 36 36 37 37 36 36 36 36 37 36 37 36 35 34 32 31 31 32 32 32 32 33 33 33 33 33 33 34 35 36 37 37 37 38 38 39 39
43 44 44 45 46 47 47 47 47 46 46 46 45 45 45 44 44 43 43 43 43 43 42 41 41 40 39 38 37 38 38 38 38 37 37 37 37 38 37 37 37 36 35 35 35 35 35 36 37 37 37 37 37 37 36 36 36 36 35 35 34 33 32 32 32 33 33 33 33 34 34 34 34 34 35 35 36 37 38 38 39 40 40 41 41
42 43 43 44 45 46 47 47 47 47 46 46 45 45 45 44 44 43 43 43 43 43 43 42 41 41 40 39 38 37 37 37 37 37 37 37 37 38 38 38 38 38 38 37 36 36 36 36 37 38 38 38 39 39 39 39 38 37 36 36 35 34 32 32 32 33 33 34 34 34 35 35 35 36 37 37 38 38 39 40 41 42 42 42 43
40 41 42 43 44 45 46 46 46 46 46 46 46 45 45 44 44 43 43 43 43 43 43 43 42 41 41 40 38 38 37 37 37 37 37 37 37 37 37 38 38 39 39 39 39 39 38 38 38 38 38 39 39 40 40 40 40 40 39 38 38 37 37 36 36 36 37 37 37 37 38 38 38 39 39 39 40 40 41 42 43 43 43 44 44
38 39 40 41 42 43 44 45 45 46 46 46 46 45 45 44 44 43 43 43 43 43 43 43 42 42 41 40 39 38 38 37 37 37 37 38 38 37 37 37 38 38 39 40 40 40 39 39 38 38 38 38 39 39 40 40 41 41 40 40 40 40 40 40 40 40 40 41 41 41 42 42 42 41 41 41 40 41 42 43 43 44 44 45 45
35 37 38 39 40 41 42 43 44 45 45 45 45 45 45 44 44 43 43 43 43 42 42 42 42 42 42 41 40 39 38 37 37 36 37 38 38 37 37 37 37 38 38 39 39 39 39 39 39 39 38 38 38 38 39 39 40 40 40 40 40 40 40 41 42 42 43 43 44 44 44 45 45 44 44 43 42 42 43 43 44 44 45 45 46
33 35 36 37 38 40 41 42 43 44 44 44 45 45 45 45 44 44 43 43 43 42 42 41 41 41 41 41 41 40 38 38 37 36 36 37 38 38 37 37 37 37 37 37 38 39 39 39 39 38 38 37 37 36 36 37 38 38 39 39 39 40 40 41 42 42 43 43 44 44 45 45 45 45 45 45 45 45 45 45 45 46 46 47 47
31 33 34 35 36 38 39 41 41 42 43 43 43 44 44 44 44 44 44 43 43 42 42 41 41 40 40 40 41 40 39 38 38 37 36 36 36 37 37 36 35 35 35 36 37 38 38 38 38 38 37 36 36 35 35 35 35 36 37 37 37 38 39 40 40 40 41 42 42 43 44 44 45 45 45 45 45 46 46 46 46 47 47 47 47
30 31 32 33 34 36 37 39 39 40 41 42 42 42 43 43 43 43 43 43 42 42 41 41 40 40 39 39 39 40 40 39 38 37 36 35 34 35 35 35 34 34 34 34 34 35 36 36 36 36 36 36 35 35 34 34 34 35 35 36 36 37 37 37 37 37 38 39 39 40 41 42 43 43 44 44 44 45 45 45 46 46 46 46 46
29 30 30 31 32 33 35 36 38 39 40 40 41 41 41 42 42 42 42 42 41 41 41 40 40 39 39 38 38 38 38 38 38 37 36 34 33 33 33 34 35 35 34 33 33 33 34 34 34 34 34 35 35 35 34 33 33 33 34 35 35 35 35 35 35 35 35 36 37 38 38 39 39 40 40 41 42 42 43 43 43 43 44 44 45
28 28 29 29 30 31 32 34 35 36 38 38 39 39 40 40 40 40 40 40 40 40 40 40 39 38 38 38 37 37 37 37 37 37 36 35 33 33 32 32 34 34 34 32 32 32 32 33 33 34 33 33 33 33 33 32 32 32 32 32 32 32 32 32 32 33 33 33 34 35 35 35 36 36 36 36 37 38 39 39 40 40 41 41 42
Wind_Direction
212 213 213 212 213 214 214 214 214 214 214 213 213 214 214 213 213 213 213 213 213 213 214 213 213 213 214 215 216 217 217 217 216 215 215 217 218 218 221 223 223 224 224 225 226 226 226 225 226 225 224 224 224 224 224 222 220 219 217 217 219 220 221 224 230 235 238 240 244 249 254 261 265 269 277 281 282 288 295 298 300 302 306 305 301
213 213 214 214 214 215 216 216 215 216 215 215 216 216 216 216 215 215 216 215 215 215 216 217 217 217 217 217 218 219 221 221 220 220 220 221 221 223 225 227 227 226 227 228 228 228 228 227 227 227 227 226 225 226 227 227 226 224 223 224 226 227 227 231 235 240 244 246 248 252 256 261 266 271 277 280 284 288 291 295 297 297 300 304 302
214 214 215 215 216 216 217 217 217 217 216 217 217 218 218 218 217 217 218 218 218 218 218 218 219 220 220 220 220 221 223 223 223 224 224 225 225 226 228 230 230 230 230 230 230 229 229 229 228 228 229 229 228 228 230 231 232 232 231 231 233 233 233 236 240 244 249 252 254 257 260 263 267 273 277 281 284 286 289 292 295 295 296 301 302
214 214 215 216 216 217 218 218 218 218 217 218 218 219 220 220 219 219 220 220 220 220 220 220 220 222 223 224 224 224 225 226 226 227 228 228 229 228 230 232 233 232 232 232 232 230 230 230 230 229 230 232 232 232 232 233 235 236 238 239 240 241 241 241 244 248 252 255 258 260 263 266 270 274 277 280 282 285 288 290 292 295 295 298 302
215 214 215 217 217 218 218 219 219 219 219 219 219 220 221 222 222 222 222 222 222 222 223 223 222 224 226 227 226 227 228 229 229 230 230 231 232 232 232 234 234 234 234 234 233 232 232 232 232 231 232 234 234 234 234 236 236 237 239 241 242 244 245 246 247 249 253 257 260 263 266 269 272 275 277 279 282 284 286 289 291 293 295 297 301
216 214 216 217 218 218 219 220 220 221 221 221 221 221 222 223 223 223 224 224 224 224 224 225 225 226 228 229 229 229 230 231 232 232 232 232 234 234 234 235 236 236 236 236 235 235 235 235 235 234 234 235 235 236 237 238 238 239 240 242 243 245 247 248 249 252 255 259 262 265 267 269 272 274 276 279 282 285 287 290 291 292 293 295 298
221 217 217 218 219 220 221 221 222 222 223 224 224 223 224 224 225 225 225 226 226 226 226 226 227 228 230 231 231 231 232 233 234 235 234 233 234 236 236 236 237 237 237 237 237 237 237 237 238 238 238 238 238 238 239 241 242 242 243 245 247 248 250 252 253 255 258 261 263 265 267 269 270 273 276 278 281 285 288 289 290 291 291 293 296
225 221 219 219 220 221 223 223 224 224 224 225 226 226 225 226 226 226 227 227 227 228 228 228 228 229 230 232 233 233 234 235 236 237 237 235 235 236 238 238 239 239 238 238 238 239 239 239 239 239 240 241 241 241 242 243 244 245 246 248 250 252 254 255 256 258 260 262 264 266 268 270 271 274 277 278 280 283 285 286 287 289 290 292 294
226 224 222 221 221 222 223 225 226 226 226 226 227 227 227 228 228 228 228 228 229 229 230 231 230 230 230 232 234 234 235 237 238 238 238 238 237 238 239 240 241 241 241 241 240 241 241 242 242 242 242 242 243 244 245 245 246 247 248 249 251 253 255 257 258 259 261 263 265 267 269 271 273 275 277 278 279 282 284 285 287 290 291 291 293
228 225 224 223 223 224 224 226 227 228 227 227 228 229 229 229 230 229 229 229 230 230 231 233 233 233 232 233 235 236 237 239 239 239 240 240 240 240 240 241 242 243 243 244 243 243 243 244 245 245 244 243 243 245 246 247 247 248 250 251 252 253 255 257 259 260 262 265 267 269 270 272 274 276 278 280 282 284 286 287 289 291 292 292 294
232 228 227 226 225 226 226 227 228 228 229 229 229 231 232 231 231 232 231 231 231 231 232 233 235 236 235 235 235 237 239 240 239 239 240 241 242 243 243 243 244 245 245 245 246 246 246 246 247 248 247 246 246 246 248 248 249 250 251 252 253 254 256 258 260 261 263 265 267 269 271 273 275 277 279 281 283 285 287 289 290 292 292 294 295
235 233 232 229 226 227 227 228 229 229 230 230 231 232 234 233 233 233 233 233 233 233 234 234 236 237 239 239 238 239 241 241 240 240 241 241 242 243 245 245 245 246 246 246 247 248 248 248 248 249 249 248 248 249 250 250 250 251 252 253 254 255 256 258 260 262 264 266 268 269 271 273 275 277 278 280 283 285 287 289 291 292 292 293 294
238 237 236 233 229 227 228 229 230 230 231 231 231 233 235 235 235 234 234 234 235 235 236 236 237 238 240 241 242 242 243 242 241 242 243 242 242 243 245 246 247 247 247 247 247 248 249 249 250 250 250 250 249 250 251 251 252 252 253 255 255 256 257 258 259 261 264 266 268 269 271 273 275 276 278 280 282 284 285 287 290 291 292 292 293
242 240 240 238 234 231 230 231 232 232 232 233 233 233 234 236 237 236 235 235 236 236 237 238 239 241 242 242 243 244 245 244 242 243 244 244 244 244 245 246 248 248 248 248 248 248 249 250 251 252 252 252 251 251 250 252 253 254 255 256 257 258 258 259 260 261 263 265 267 269 271 273 274 276 278 280 281 283 285 287 288 290 291 292 293
245 243 243 242 239 236 235 235 235 235 234 235 235 235 235 236 237 237 237 236 237 237 239 240 241 242 243 244 244 245 246 245 244 243 244 244 245 246 246 247 248 249 249 249 249 249 249 249 251 252 253 253 253 252 252 253 254 255 256 257 258 259 260 261 262 263 264 265 266 269 271 272 274 276 277 279 280 282 284 285 287 289 290 291 292
248 247 246 245 244 242 240 239 239 238 237 237 237 237 236 236 237 238 238 238 238 238 240 241 242 242 243 244 245 246 246 245 244 244 244 245 246 248 248 248 249 250 251 251 251 251 250 250 250 252 253 253 253 253 253 253 254 255 256 258 259 260 262 262 262 263 264 266 267 268 270 271 272 274 276 277 278 280 282 283 285 286 287 289 291
247 249 249 248 246 244 242 241 241 240 240 240 239 238 237 237 236 237 238 238 239 239 240 241 242 242 243 243 244 246 247 246 245 245 245 245 247 249 249 249 250 251 252 252 252 252 252 251 251 252 253 254 254 253 253 253 254 255 256 257 259 260 261 263 263 262 263 265 267 268 270 271 272 272 274 275 276 277 279 280 282 284 285 286 288
248 248 249 250 249 246 244 242 241 241 241 241 240 239 238 237 236 236 236 237 238 239 240 241 242 242 243 244 244 245 246 246 245 245 246 245 247 249 249 250 251 252 252 252 253 253 253 252 252 253 253 254 254 253 253 253 254 255 256 257 258 259 261 263 265 264 264 264 266 268 269 271 272 273 273 273 274 274 275 277 280 281 282 283 285
252 250 249 249 249 249 248 247 245 243 242 242 243 242 242 241 241 239 238 238 238 239 240 241 242 243 244 244 245 245 246 246 245 245 245 245 246 248 249 250 251 252 253 253 253 253 253 253 252 252 253 254 254 254 254 254 255 255 256 258 258 259 261 263 265 266 266 265 266 267 268 270 272 273 274 274 273 273 273 275 277 278 278 280 282
254 253 252 250 249 249 250 250 249 248 246 245 245 245 246 247 247 246 244 243 241 241 242 243 245 245 245 245 246 246 246 247 246 245 245 245 246 247 248 249 251 252 253 253 254 254 253 254 253 252 252 253 254 254 254 255 255 256 257 258 259 260 263 264 264 265 265 266 266 267 268 269 271 273 274 274 274 273 273 273 274 275 276 278 280
254 254 254 252 251 250 251 251 251 251 251 249 248 246 246 248 249 248 248 248 247 246 247 247 247 247 246 246 246 246 247 247 247 245 245 245 245 246 247 249 250 251 252 253 254 254 254 254 254 253 252 253 253 253 253 254 255 256 257 258 259 262 263 264 264 264 265 266 266 267 268 269 270 272 273 273 274 274 273 272 271 272 273 275 277
253 253 254 254 253 252 252 252 252 252 252 252 252 250 248 248 249 248 247 248 249 248 247 247 246 247 247 247 247 247 247 247 247 246 246 246 246 246 247 248 249 250 251 252 253 254 254 255 255 254 253 253 254 254 253 253 254 256 257 258 259 261 262 263 264 264 265 266 266 267 267 268 269 271 272 272 273 274 273 273 272 272 272 273 275
254 253 253 254 254 253 253 253 253 253 253 253 254 253 250 248 248 247 246 247 248 249 248 247 247 247 248 248 247 247 247 247 247 246 246 246 246 246 247 249 249 250 251 252 253 254 254 255 255 254 253 254 254 255 254 254 254 256 257 258 258 259 261 262 263 263 263 265 266 266 267 267 268 269 270 272 273 273 273 273 273 272 272 272 274
254 254 254 254 255 255 254 254 254 254 254 254 254 254 252 249 248 247 247 248 249 249 249 250 249 248 248 248 247 247 247 247 246 246 245 245 246 247 248 249 250 250 252 253 253 254 254 254 255 254 253 253 254 255 255 255 255 256 257 257 258 258 259 259 261 261 262 263 264 265 266 266 267 269 270 272 273 273 273 273 273 272 273 273 273
253 254 254 254 255 256 256 255 255 255 255 255 255 254 253 251 250 248 247 248 249 250 250 250 250 249 248 248 247 247 247 247 247 246 245 245 246 247 247 248 249 250 252 253 253 254 255 256 255 255 254 253 254 255 255 255 256 257 257 257 257 257 257 257 259 260 261 262 263 264 265 266 267 269 271 272 272 272 272 273 273 273 272 272 272
253 254 254 254 254 256 256 257 257 256 255 255 255 255 254 252 251 250 249 248 248 249 250 251 251 251 251 251 251 252 252 251 251 250 247 246 246 246 246 247 248 250 252 253 254 255 255 256 256 255 255 254 254 255 256 257 257 257 257 257 256 255 255 256 256 258 259 260 262 263 264 266 267 268 269 270 271 272 272 272 273 273 272 272 272
251 252 254 254 254 255 256 257 258 258 256 255 255 255 254 253 252 251 250 249 249 250 251 252 254 254 255 256 256 258 258 257 256 254 252 249 247 246 246 247 248 250 252 253 254 254 255 256 257 257 257 256 255 256 257 257 258 258 257 256 255 254 254 255 255 257 258 259 260 262 263 265 265 266 267 267 268 270 271 271 272 272 271 271 272
250 251 252 253 254 254 255 256 257 257 256 255 255 255 254 254 253 252 252 251 251 250 251 252 254 255 256 256 257 259 259 258 257 256 255 253 249 246 246 246 247 249 252 253 253 253 254 256 257 258 258 257 255 255 256 256 256 257 257 256 255 253 253 253 254 255 256 258 259 261 262 263 263 264 264 265 266 268 269 271 271 271 271 271 271
249 250 250 251 252 252 253 254 255 256 256 255 254 254 254 254 254 255 254 253 251 251 251 252 253 255 256 255 256 258 259 259 258 256 256 255 252 247 246 247 249 251 253 254 253 253 253 255 257 257 257 256 255 254 254 254 254 255 255 254 254 253 252 251 252 253 254 256 258 259 261 261 262 263 263 264 266 267 268 269 270 270 271 271 271
249 249 249 249 249 250 251 252 253 254 255 254 254 254 254 253 253 254 256 255 254 253 252 252 253 254 255 254 255 257 259 259 259 257 256 256 254 250 248 249 250 251 253 254 254 254 253 254 256 255 253 253 254 252 252 251 251 252 252 252 252 252 251 251 251 252 253 255 256 258 260 261 262 263 263 264 266 267 268 268 269 270 270 270 271
248 248 248 248 248 249 250 251 252 253 253 253 253 254 255 254 254 254 255 257 257 256 254 253 253 253 253 254 255 257 258 259 260 260 258 257 255 253 252 252 251 251 252 253 254 254 252 253 254 252 250 251 251 250 249 248 248 249 250 250 251 251 251 252 252 253 254 255 256 258 259 260 261 262 263 264 266 268 268 268 269 269 270 270 271
248 248 248 248 249 249 250 250 250 251 251 252 252 254 255 255 256 255 254 256 258 259 256 254 253 252 253 254 255 256 258 259 260 262 261 259 256 254 253 253 252 252 252 252 254 254 253 252 252 251 250 249 248 247 246 246 246 247 248 249 250 251 251 251 252 253 254 255 257 258 259 260 261 262 262 264 265 266 267 268 269 269 270 271 273
247 247 248 248 248 249 249 249 249 249 250 250 251 252 254 255 256 257 256 256 257 258 258 256 254 253 253 253 254 255 256 257 259 261 263 262 259 256 254 254 253 252 252 252 253 254 253 252 251 250 248 246 245 245 246 246 246 246 247 248 250 251 251 251 252 252 254 255 257 258 259 260 261 262 262 263 264 265 266 267 268 269 270 271 272
247 247 247 248 248 248 249 249 249 249 249 249 250 251 252 254 255 256 258 258 257 258 259 258 256 255 254 254 254 254 255 256 258 260 261 261 260 257 255 255 254 253 252 252 253 253 251 249 249 247 245 244 244 245 245 245 246 246 246 247 249 250 251 252 252 252 253 255 256 258 259 260 261 262 263 263 264 264 265 266 267 268 270 271 272
246 246 246 247 248 248 248 248 249 249 248 249 249 250 251 252 253 255 256 256 257 258 259 259 258 257 256 256 255 255 255 256 257 257 257 257 257 256 255 254 253 252 251 252 253 250 245 245 247 245 244 244 244 244 245 246 246 246 246 246 248 249 250 251 252 253 253 254 255 257 258 260 260 261 262 263 264 265 266 267 268 269 270 271 272
245 246 246 247 247 247 247 248 248 248 248 248 249 249 250 251 252 253 253 254 256 257 258 259 260 259 257 255 255 256 256 256 256 255 253 253 254 254 254 252 251 251 250 250 249 244 240 242 244 244 243 244 244 244 245 246 246 246 246 245 246 247 248 249 251 252 253 254 256 257 258 259 260 260 261 262 263 264 265 266 268 269 269 271 272
245 246 246 246 247 247 247 247 248 248 248 249 249 249 250 250 250 251 252 253 254 256 257 258 259 260 258 256 255 257 258 258 256 254 252 251 252 253 254 252 251 250 248 246 244 243 241 242 244 244 245 245 245 245 246 247 247 247 246 245 245 246 247 249 251 252 253 255 256 258 259 260 260 261 261 262 263 264 264 266 267 268 269 270 272
245 246 246 246 247 247 247 248 248 248 248 248 249 249 249 249 249 250 250 252 253 254 255 257 258 259 259 258 257 258 258 258 256 254 251 251 251 252 253 252 251 251 248 245 244 245 246 246 247 248 248 248 249 249 249 250 250 250 250 248 247 246 247 249 251 252 254 255 257 259 260 261 262 262 262 263 265 266 267 268 268 268 268 269 271
246 246 246 246 246 247 247 248 248 248 247 247 248 248 248 249 249 249 249 250 252 253 254 256 257 257 258 258 259 259 258 257 255 253 251 251 251 251 252 252 251 251 249 247 246 247 248 249 250 251 252 253 254 255 255 254 254 254 255 254 252 249 248 249 251 253 254 255 257 259 261 262 263 264 264 266 267 268 269 270 270 270 270 270 271
247 247 247 246 246 246 247 247 247 247 247 247 248 248 248 248 249 249 249 250 250 251 252 254 255 256 257 258 260 260 258 256 255 253 251 250 250 250 251 252 251 251 250 248 248 249 249 250 251 253 255 256 257 257 258 259 259 258 257 257 255 254 253 253 253 254 255 256 258 260 261 262 264 266 267 268 269 269 270 270 271 271 272 273 273
248 248 247 247 247 246 246 246 247 247 247 248 248 248 248 248 248 249 249 249 249 250 251 252 253 254 256 258 260 260 258 256 254 253 251 250 249 248 249 249 250 250 250 249 249 250 251 251 253 255 256 257 257 257 258 260 260 259 258 257 256 256 257 257 257 258 258 259 260 261 263 264 265 267 269 269 269 269 270 271 271 272 273 274 275
248 248 248 248 247 247 247 247 247 246 247 247 248 248 248 248 248 248 249 249 249 249 250 250 251 252 254 257 259 259 258 256 254 252 251 249 248 248 248 248 249 249 249 249 250 251 252 254 255 256 256 257 258 257 258 260 260 259 259 258 257 256 256 257 259 261 262 264 264 265 266 267 268 269 270 270 270 271 271 271 271 272 273 274 274
248 248 248 248 248 247 247 247 247 246 246 247 247 247 248 248 248 248 249 249 248 248 249 249 250 251 252 255 257 257 257 256 255 253 250 249 249 248 248 248 249 249 249 249 250 252 254 255 257 257 258 258 259 259 260 261 262 262 263 263 262 261 261 261 262 263 265 267 268 269 270 270 270 270 271 271 271 272 272 272 272 273 273 274 274
248 248 248 248 248 247 247 247 247 246 246 246 247 247 247 247 247 248 248 248 248 248 248 249 249 250 251 253 254 255 255 256 256 254 251 249 249 249 249 249 249 249 249 249 250 252 255 257 258 259 259 260 261 261 262 263 265 266 267 267 267 266 265 265 265 265 266 268 269 269 270 272 272 272 272 272 272 272 272 272 273 273 273 274 274
248 248 248 248 248 247 247 246 246 246 246 246 246 246 246 246 247 247 247 248 249 249 249 249 249 249 250 251 252 253 254 254 255 255 253 251 249 250 250 250 250 250 250 250 250 252 254 256 258 260 261 261 262 263 264 265 266 266 267 267 268 267 266 266 266 266 267 268 268 269 270 271 272 272 272 272 272 272 272 272 273 273 274 274 275
249 249 249 248 248 247 246 246 246 245 245 245 246 245 245 246 246 246 247 247 249 249 249 249 249 249 250 250 251 251 252 253 254 255 255 252 250 250 250 251 251 252 251 251 250 251 253 255 257 259 261 262 263 264 265 266 267 267 267 268 268 268 268 267 267 267 267 268 268 269 270 271 271 271 272 272 272 273 273 273 273 273 273 274 275
250 250 250 249 248 247 246 245 245 245 244 245 245 245 245 245 245 246 246 247 248 249 249 249 249 249 249 250 250 250 251 251 252 253 254 253 251 250 250 251 252 252 252 251 251 252 254 255 257 259 260 261 263 264 266 267 268 268 268 269 269 269 269 269 269 268 268 268 269 270 270 271 272 272 272 272 272 273 273 274 274 273 274 274 275
251 251 251 250 249 248 246 245 245 244 244 244 244 245 245 245 245 245 246 246 247 248 248 249 249 249 249 249 250 249 250 250 250 251 252 252 251 250 250 251 252 253 253 253 253 253 254 255 256 257 259 260 262 264 266 268 269 270 270 270 270 271 271 271 270 270 270 270 270 271 271 271 272 273 273 273 273 273 273 273 274 274 274 274 275
252 252 252 252 251 249 247 245 244 243 243 243 244 244 244 245 245 245 245 245 246 247 247 248 249 249 249 249 249 249 249 249 249 250 250 250 250 250 249 249 251 253 253 253 253 253 253 254 255 256 257 258 260 263 266 268 269 271 271 271 272 273 273 273 272 272 271 271 270 270 271 271 272 273 273 273 273 273 273 273 274 275 275 275 275
254 254 254 253 252 250 248 246 245 243 243 243 243 243 243 244 244 245 245 245 245 246 247 247 247 248 248 248 248 248 247 247 247 248 248 249 249 249 248 248 249 250 252 253 253 253 254 255 256 256 257 258 260 262 264 267 269 270 271 271 273 273 274 274 273 272 272 271 270 270 271 272 273 274 274 274 275 275 275 275 275 276 276 276 276
256 255 255 254 253 251 249 247 245 244 242 242 242 242 242 243 243 244 244 245 245 245 246 246 246 247 247 247 247 247 246 245 245 245 246 247 247 249 249 248 248 248 250 251 253 254 255 256 256 257 258 259 260 262 264 266 268 269 270 272 273 273 274 273 273 273 273 273 271 271 272 273 274 275 276 277 277 278 278 277 277 277 277 278 279